New Iberia, LA

9:12 PM CDT on May 29, 2017 (GMT -0500)
Acadiana Regional

Weather History for KARA - January, 2014

Change the Weather History Date:

Saturday, January 18, 2014

  Actual Average Record
Temperature  
Mean Temperature 45 °F 53 °F  
Max Temperature 59 °F 63 °F 80 °F (1950)
Min Temperature 30 °F 43 °F 19 °F (1948)
Degree Days  
Heating Degree Days 20 13  
Month to date heating degree days 307 234  
Since 1 July heating degree days 942 781  
Cooling Degree Days 0 0  
Month to date cooling degree days 0 9  
Year to date cooling degree days 0 9  
Moisture  
Dew Point 32 °F    
Average Humidity 56    
Maximum Humidity 86    
Minimum Humidity 25    
Precipitation  
Precipitation 0.00 in 0.17 in 2.60 in (1992)
Month to date precipitation 2.04 2.99  
Year to date precipitation 2.04 2.99  
Sea Level Pressure  
Sea Level Pressure 30.24 in    
Wind  
Wind Speed 6 mph (South)    
Max Wind Speed 17 mph    
Max Gust Speed 23 mph    
Visibility 10 miles    
Events      
T = Trace of Precipitation, MM = Missing Value Source: NWS Daily Summary

Daily Weather History Graph

Daily Weather History Graph

Search for Another Location

Airport or City:

Trip Planner

Search our weather history database for the weather conditions in past years. The results will help you decide how hot, cold, wet, or windy it might be!

Date:

Astronomy

Jan. 18, 2014 Rise Set
Actual Time 7:03 AM CST 5:32 PM CST
Civil Twilight 6:37 AM CST 5:58 PM CST
Nautical Twilight 6:08 AM CST 6:27 PM CST
Astronomical Twilight 5:39 AM CST 6:56 PM CST
Moon 8:00 PM CST (1/18) 8:16 AM CST (1/18)
Length of Visible Light 11h 20m
Length of Day
10h 28m
Waning Gibbous, 94% of the Moon is Illuminated
Jan 18
Waning Gibbous
Jan 23
Last Quarter
Jan 30
New
Feb 6
First Quarter
Feb 14
Full

Hourly Weather History & Observations

Time (CST) Temp. Windchill Dew Point Humidity Pressure Visibility Wind Dir Wind Speed Gust Speed Precip Events Conditions
12:53 AM 35.1 °F - 25.0 °F 67% 30.28 in 10.0 mi Calm Calm - N/A   Clear
1:53 AM 37.9 °F - 24.1 °F 57% 30.30 in 10.0 mi Calm Calm - N/A   Clear
2:53 AM 33.1 °F - 27.0 °F 78% 30.30 in 10.0 mi Calm Calm - N/A   Clear
3:53 AM 34.0 °F - 28.0 °F 79% 30.31 in 10.0 mi Calm Calm - N/A   Clear
4:53 AM 32.0 °F 28.7 °F 28.0 °F 85% 30.31 in 10.0 mi NNE 3.5 mph - N/A   Clear
5:53 AM 30.0 °F - 25.0 °F 82% 30.31 in 9.0 mi Calm Calm - N/A   Clear
6:53 AM 30.9 °F - 27.0 °F 85% 30.30 in 10.0 mi Calm Calm - N/A   Clear
7:53 AM 34.0 °F 31.0 °F 28.0 °F 79% 30.30 in 10.0 mi SSE 3.5 mph - N/A   Clear
8:53 AM 44.1 °F 39.5 °F 30.0 °F 58% 30.30 in 10.0 mi SSE 8.1 mph - N/A   Clear
9:53 AM 50.0 °F - 25.0 °F 38% 30.32 in 10.0 mi SSE 10.4 mph - N/A   Clear
10:53 AM 53.1 °F - 23.0 °F 31% 30.31 in 10.0 mi SE 8.1 mph - N/A   Clear
11:53 AM 57.0 °F - 23.0 °F 27% 30.27 in 10.0 mi South 13.8 mph - N/A   Clear
12:53 PM 57.0 °F - 27.0 °F 32% 30.22 in 10.0 mi South 13.8 mph - N/A   Clear
1:53 PM 57.9 °F - 30.0 °F 35% 30.21 in 10.0 mi South 11.5 mph - N/A   Clear
2:53 PM 57.9 °F - 32.0 °F 37% 30.20 in 10.0 mi South 12.7 mph - N/A   Clear
3:53 PM 57.0 °F - 32.0 °F 39% 30.19 in 10.0 mi SSW 13.8 mph - N/A   Clear
4:53 PM 54.0 °F - 34.0 °F 47% 30.18 in 10.0 mi South 5.8 mph - N/A   Clear
5:53 PM 50.0 °F - 37.0 °F 61% 30.18 in 10.0 mi South 5.8 mph - N/A   Clear
6:53 PM 46.9 °F - 39.0 °F 74% 30.17 in 10.0 mi South 4.6 mph - N/A   Clear
7:53 PM 46.0 °F 43.1 °F 39.0 °F 76% 30.16 in 10.0 mi South 5.8 mph - N/A   Clear
8:53 PM 46.9 °F - 41.0 °F 80% 30.17 in 10.0 mi South 4.6 mph - N/A   Clear
9:53 PM 48.0 °F - 44.1 °F 86% 30.17 in 10.0 mi SSW 6.9 mph - N/A   Partly Cloudy
10:53 PM 50.0 °F - 46.0 °F 86% 30.14 in 10.0 mi SSW 8.1 mph - N/A   Scattered Clouds
11:53 PM 50.0 °F - 46.9 °F 89% 30.13 in 10.0 mi SW 5.8 mph - N/A   Clear